[[{"header":{"parameterUnit":"m.s-1","parameterCategory":1,"la1":30.2991,"la2":30.254,"lo1":-89.0895,"lo2":-89.0444,"dy":0.0017,"dx":0.0017,"nx":28,"ny":28,"refTime":"2023-10-10T09:00:00:Z","depth":0,"parameterNumber":2,"parameterNumberName":"U-component_of_WINDS"},"data":[0,0,0,0,0,0,0,0,0,0,0,0,0,0,0,0,0,0,0,0,0,0,0,0,0,0,0,0,0,0,0,0,0,0,0,0,0,0,0,0,0,0,0,0,0,0,0,0,0,0,0,0,0,0,0,0,0,0,0.3178,0.3179,0,0.3279,0.328,0.3281,0.3323,0.3323,0.3323,0.3322,0.3427,0.343,0.3433,0,0,0,0,0,0,0,0,0,0,0,0,0,0.3025,0.3027,0.3178,0.3179,0.3181,0.3278,0.328,0.3281,0.3323,0.3323,0.3323,0.3322,0.3426,0.343,0.3433,0,0,0,0,0,0,0,0,0,0,0,0,0,0.3105,0.3028,0.3178,0.3213,0.3218,0.3278,0.328,0.3281,0.3323,0.3323,0.3323,0.3322,0.3425,0.343,0.3434,0.3467,0,0,0.3448,0.345,0,0,0,0,0,0,0,0,0.31,0.311,0.3207,0.3211,0.3216,0.3288,0.3264,0.3344,0.3323,0.3283,0.3322,0.3322,0.3381,0.3389,0.3409,0.3472,0.3477,0.3448,0.3451,0.3453,0.3454,0,0,0,0,0,0,0,0.3094,0.3106,0.3218,0.3208,0.3214,0.3225,0.3236,0.3279,0.3333,0.3287,0.329,0.3301,0.3384,0.3405,0.3412,0.3478,0.3448,0.3452,0.3455,0.3456,0.3574,0.3574,0,0,0,0,0,0,0.3083,0.3101,0.3215,0.3221,0.3156,0.3228,0.324,0.3265,0.3332,0.3342,0.3301,0.3303,0.3397,0.3406,0.3416,0.3459,0.3453,0.3457,0.3459,0.3573,0.3574,0.3574,0,0,0,0,0,0,0.3079,0.3093,0.3211,0.3162,0.3178,0.3231,0.3258,0.3267,0.3288,0.3343,0.3353,0.3312,0.3397,0.3409,0.3454,0.3463,0.3459,0.3463,0.3573,0.3573,0.3574,0.3546,0,0,0,0,0,0,0.3075,0.3091,0.3104,0.3162,0.318,0.3247,0.3259,0.3269,0.3295,0.3298,0.3357,0.3366,0.3398,0.3447,0.3458,0.3469,0.3466,0.3572,0.3573,0.3574,0.3546,0.3545,0.3545,0,0,0,0,0,0.3069,0.3093,0.3105,0.3118,0.3198,0.3247,0.3258,0.3293,0.3296,0.331,0.3345,0.3364,0.346,0.3451,0.3464,0.3477,0.3572,0.3573,0.3574,0.3546,0.3545,0.3545,0,0,0,0,0,0,0.3036,0.3101,0.3115,0.3158,0.3197,0.3254,0.3273,0.3291,0.3331,0.3332,0.3375,0.3388,0.3429,0.3457,0.3446,0.3512,0.3517,0.3521,0.3492,0.3492,0.3491,0.3484,0.347,0,0,0,0,0,0.3033,0.3068,0.3123,0.3156,0.3174,0.322,0.3243,0.3267,0.3309,0.3326,0.3365,0.3405,0.3445,0.347,0.3509,0.355,0.3563,0.3565,0.3564,0.3563,0.3566,0.359,0.3591,0.3577,0.3577,0.3577,0,0,0.3029,0.3069,0.3088,0.315,0.3183,0.3218,0.3234,0.327,0.3297,0.3332,0.3376,0.3406,0.3454,0.3496,0.3517,0.3522,0.3573,0.3565,0.3563,0.3567,0.3591,0.3592,0.3593,0.3578,0.3578,0.3578,0,0,0.3039,0.3072,0.3103,0.3135,0.3184,0.3214,0.3221,0.3276,0.3297,0.3341,0.3368,0.34,0.3467,0.35,0.3526,0.3546,0.3565,0.3558,0.3554,0.3577,0.3578,0.3579,0.3586,0.3588,0.356,0.356,0.356,0,0.3027,0.3081,0.3117,0.3151,0.3178,0.3209,0.3241,0.3271,0.333,0.3348,0.3351,0.3435,0.347,0.352,0.3525,0.3545,0.3554,0.3552,0.3574,0.3576,0.3578,0.3585,0.3588,0.3559,0.3559,0.3559,0.3559,0,0.3064,0.31,0.3119,0.3175,0.3203,0.3236,0.3277,0.3302,0.3322,0.3352,0.3397,0.3439,0.3487,0.3501,0.3522,0.3554,0.3555,0.3566,0.3572,0.3577,0.3585,0.3588,0.3557,0.3558,0.3558,0.3558,0,0,0.3057,0.3131,0.3137,0.3162,0.3218,0.3247,0.3281,0.3327,0.3347,0.3387,0.3416,0.3471,0.3481,0.351,0.3535,0.3554,0.3567,0.3563,0.3565,0.3562,0.3605,0.3597,0.36,0.358,0.3581,0.3581,0.3601,0,0.3075,0.3136,0.3169,0.3217,0.3251,0.3281,0.3311,0.3348,0.3376,0.3409,0.3441,0.3479,0.3489,0.3507,0.3527,0.3561,0.3577,0.356,0.3609,0.361,0.3596,0.3604,0.3596,0.3613,0.3604,0.3605,0.3605,0,0.3104,0.3142,0.3193,0.3243,0.3259,0.3285,0.3329,0.336,0.3403,0.3422,0.3453,0.3478,0.3515,0.3517,0.3569,0.3557,0.3579,0.3598,0.36,0.3606,0.3608,0.3611,0.3619,0.3622,0.361,0.361,0.361,0,0.3093,0.3157,0.3196,0.3217,0.3277,0.3294,0.332,0.3363,0.3388,0.3427,0.3443,0.3486,0.351,0.3542,0.3577,0.3576,0.3625,0.3631,0.3643,0.3642,0.3653,0.3652,0.3665,0.3665,0.3665,0.3665,0.3665,0,0.311,0.314,0.3192,0.3216,0.325,0.3287,0.3321,0.3349,0.3386,0.3416,0.3445,0.3473,0.3517,0.355,0.3578,0.3616,0.3627,0.3644,0.3651,0.3641,0.3639,0.3657,0.3656,0.3666,0.3666,0.3666,0.3666,0,0.3105,0.3141,0.3185,0.3237,0.3251,0.3274,0.332,0.3344,0.3373,0.3411,0.3422,0.3467,0.3508,0.3546,0.36,0.3619,0.3657,0.3666,0.3643,0.3647,0.3656,0.3655,0.3681,0.3687,0.3683,0.3683,0.3683,0,0.3113,0.3137,0.3191,0.3213,0.3238,0.3273,0.3298,0.3335,0.3361,0.341,0.3429,0.3471,0.3507,0.357,0.3608,0.365,0.366,0.3667,0.3667,0.3656,0.3661,0.3659,0.3661,0.3666,0.3666,0.3666,0.3666,0,0.3124,0.314,0.3175,0.3217,0.3246,0.328,0.3316,0.3332,0.3376,0.3403,0.3444,0.3471,0.3526,0.3567,0.3613,0.364,0.366,0.3665,0.367,0.3661,0.3646,0.3654,0.3641,0.3665,0.3665,0.3665,0.3665,0.3665,0.3126,0.3148,0.319,0.3228,0.3258,0.329,0.3315,0.3347,0.3381,0.3428,0.3448,0.3489,0.3531,0.3594,0.3621,0.3654,0.3658,0.3666,0.3667,0.3669,0.3667,0.364,0.3662,0.3662,0.3662,0.3662,0.3663,0,0.3139,0.3166,0.3201,0.3249,0.3279,0.3294,0.3333,0.3357,0.3393,0.343,0.3464,0.3511,0.3551,0.3592,0.3634,0.3653,0.3663,0.3663,0.3662,0.3668,0.366,0.3652,0.3654,0.3654,0.3654,0.3654,0.3653,0.3653,0.3149,0.3187,0.3208,0.3261,0.3289,0.3329,0.335,0.338,0.3409,0.346,0.3493,0.3519,0.3557,0.3602,0.364,0.3651,0.3665,0.3662,0.3676,0.3668,0.3668,0.3669,0.3661,0.3665,0.3665,0.3681,0.3681,0.3681]},{"header":{"parameterUnit":"m.s-1","parameterCategory":1,"la1":30.2991,"la2":30.254,"lo1":-89.0895,"lo2":-89.0444,"dy":0.0017,"dx":0.0017,"nx":28,"ny":28,"refTime":"2023-10-10T09:00:00:Z","depth":0,"parameterNumber":3,"parameterNumberName":"V-component_of_WINDS"},"data":[0,0,0,0,0,0,0,0,0,0,0,0,0,0,0,0,0,0,0,0,0,0,0,0,0,0,0,0,0,0,0,0,0,0,0,0,0,0,0,0,0,0,0,0,0,0,0,0,0,0,0,0,0,0,0,0,0,0,2.2047,2.2047,0,2.201,2.201,2.2009,2.2024,2.2025,2.2026,2.2027,2.1985,2.1983,2.1981,0,0,0,0,0,0,0,0,0,0,0,0,0,2.2126,2.2125,2.2047,2.2047,2.2046,2.201,2.201,2.2009,2.2024,2.2025,2.2026,2.2027,2.1986,2.1983,2.1981,0,0,0,0,0,0,0,0,0,0,0,0,0,2.2091,2.2124,2.2047,2.2049,2.2049,2.201,2.201,2.2009,2.2024,2.2025,2.2026,2.2027,2.1986,2.1984,2.1981,2.1937,0,0,2.1972,2.1971,0,0,0,0,0,0,0,0,2.2093,2.2088,2.2049,2.2049,2.2049,2.2023,2.2023,2.1985,2.2023,2.2033,2.2027,2.2028,2.1996,2.1993,2.1983,2.1935,2.1933,2.1972,2.197,2.1969,2.1968,0,0,0,0,0,0,0,2.2095,2.2089,2.2032,2.2049,2.2048,2.2051,2.2047,2.2015,2.2008,2.2032,2.2033,2.2029,2.1996,2.1986,2.1982,2.1933,2.1972,2.1969,2.1967,2.1966,2.1846,2.1844,0,0,0,0,0,0,2.2098,2.2091,2.2034,2.2031,2.2075,2.2048,2.2044,2.203,2.2008,2.2006,2.2028,2.203,2.199,2.1985,2.1981,2.1927,2.1969,2.1966,2.1964,2.1847,2.1845,2.1844,0,0,0,0,0,0,2.21,2.2093,2.2035,2.2062,2.2055,2.2046,2.2029,2.2029,2.2018,2.2005,2.2003,2.2019,2.1991,2.1985,2.1948,2.1926,2.1965,2.1962,2.1849,2.1847,2.1845,2.182,0,0,0,0,0,0,2.2102,2.2094,2.2078,2.2061,2.2053,2.2004,2.2028,2.2027,2.2013,2.2015,2.1996,2.1993,2.1991,2.1952,2.1945,2.1922,2.196,2.1851,2.1848,2.1845,2.1822,2.1817,2.1812,0,0,0,0,0,2.2105,2.2071,2.2077,2.207,2.2033,2.2002,2.1998,2.1997,2.2011,2.1995,2.1986,2.1994,2.193,2.1948,2.194,2.1917,2.1852,2.1849,2.1846,2.1825,2.1818,2.1812,0,0,0,0,0,0,2.2084,2.2069,2.2075,2.2035,2.202,2.2005,2.1984,2.199,2.1969,2.1972,2.1971,2.1966,2.1928,2.1919,2.194,2.1873,2.1893,2.1888,2.188,2.1873,2.1868,2.1871,2.1958,0,0,0,0,0,2.2075,2.2052,2.204,2.2006,2.1999,2.1993,2.1979,2.198,2.1964,2.1957,2.1946,2.1929,2.1905,2.1889,2.1866,2.1822,2.1817,2.1802,2.1797,2.1792,2.1787,2.1762,2.1755,2.1833,2.1833,2.1833,0,0,2.2055,2.2045,2.203,2.2002,2.199,2.1966,2.1987,2.196,2.1942,2.1953,2.1917,2.1909,2.1889,2.1848,2.183,2.1839,2.1765,2.1788,2.1785,2.1782,2.1758,2.1751,2.1744,2.1831,2.1831,2.1831,0,0,2.2007,2.1997,2.1968,2.1956,2.1939,2.1935,2.1928,2.1912,2.1907,2.1872,2.1879,2.1857,2.1815,2.1801,2.1788,2.1735,2.1741,2.1728,2.1701,2.1676,2.167,2.1665,2.1644,2.1637,2.1724,2.1723,2.1723,0,2.1984,2.1949,2.1951,2.1924,2.1911,2.1921,2.189,2.1879,2.1854,2.1844,2.1856,2.1804,2.1792,2.1747,2.1735,2.1725,2.1715,2.1729,2.1671,2.1666,2.166,2.1641,2.1634,2.1722,2.1722,2.1722,2.1722,0,2.1922,2.1897,2.1875,2.1852,2.1837,2.1808,2.1804,2.1788,2.1791,2.1785,2.1749,2.1735,2.1709,2.1699,2.1701,2.1654,2.1661,2.1672,2.1692,2.1651,2.1633,2.1626,2.172,2.172,2.1721,2.1721,0,0,2.1857,2.1837,2.1829,2.1819,2.1801,2.1781,2.1752,2.1728,2.1714,2.1697,2.1672,2.1637,2.1647,2.1633,2.1633,2.1612,2.1569,2.1625,2.1625,2.1614,2.1516,2.1507,2.1498,2.1574,2.1573,2.1572,2.1517,0,2.1807,2.1758,2.1759,2.1713,2.1689,2.1699,2.1674,2.1659,2.1654,2.1632,2.1626,2.16,2.1617,2.1608,2.1588,2.1579,2.1549,2.1583,2.1549,2.1548,2.1552,2.1489,2.1479,2.1429,2.151,2.1509,2.1508,0,2.1741,2.1723,2.1675,2.166,2.165,2.1628,2.1605,2.1585,2.1569,2.1566,2.1551,2.1554,2.1524,2.1546,2.1503,2.1526,2.1512,2.1506,2.1504,2.1499,2.1524,2.1481,2.1413,2.1404,2.1497,2.1498,2.1499,0,2.1697,2.1661,2.1627,2.1618,2.1601,2.1584,2.1576,2.1561,2.1547,2.1527,2.1517,2.1494,2.1481,2.1463,2.1459,2.1476,2.1416,2.1438,2.1411,2.1411,2.1397,2.1398,2.1323,2.1391,2.1391,2.1391,2.1391,0,2.164,2.1609,2.1608,2.1587,2.1553,2.1554,2.152,2.1513,2.15,2.1476,2.1484,2.1462,2.146,2.1436,2.1434,2.1398,2.1392,2.1388,2.1388,2.1387,2.1387,2.1376,2.1379,2.1389,2.1389,2.139,2.139,0,2.1585,2.1583,2.1546,2.1533,2.1529,2.1504,2.1492,2.1472,2.1467,2.1438,2.1431,2.1424,2.1397,2.1393,2.1361,2.1359,2.1316,2.1319,2.1321,2.1321,2.1294,2.1296,2.121,2.1198,2.1274,2.1273,2.1273,0,2.1547,2.1524,2.1509,2.1495,2.1486,2.1463,2.1448,2.1449,2.1433,2.1413,2.1395,2.1369,2.1348,2.1305,2.1296,2.1271,2.1273,2.1245,2.1269,2.1269,2.1271,2.1272,2.1269,2.1239,2.1238,2.1238,2.1237,0,2.1481,2.1481,2.1461,2.144,2.1423,2.1406,2.139,2.1378,2.1376,2.1358,2.1331,2.1315,2.1284,2.1257,2.1233,2.1223,2.1229,2.123,2.1222,2.122,2.1222,2.1219,2.1307,2.1231,2.1232,2.1232,2.1233,2.1233,2.1432,2.1412,2.1399,2.1375,2.1364,2.1349,2.1329,2.1323,2.1301,2.1276,2.1277,2.1248,2.1231,2.12,2.1188,2.1164,2.1173,2.1163,2.1159,2.1156,2.1153,2.1227,2.116,2.116,2.116,2.1161,2.1161,0,2.1365,2.1357,2.1336,2.1314,2.1296,2.1305,2.1288,2.1272,2.1246,2.1231,2.1211,2.118,2.1155,2.1144,2.1119,2.1102,2.1104,2.1095,2.1095,2.1093,2.1147,2.1156,2.1094,2.1094,2.1094,2.1094,2.1094,2.1094,2.1328,2.1294,2.1293,2.1253,2.1245,2.1217,2.1206,2.1192,2.118,2.1146,2.1125,2.1119,2.1105,2.108,2.1057,2.1054,2.1044,2.1033,2.1032,2.1082,2.1089,2.1095,2.1104,2.1031,2.1031,2.0979,2.0979,2.0978]}]]